Location: Preissac
(48.4072°N, 78.3618°W)
Time: 14:16:53
(UTC-04:00)

Envisat - Pass Details

Date: 03 September 2019
Orbit: 764 x 766 km, 98.1° (Epoch: 16 October)

Event Time Altitude Azimuth Distance (km) Brightness Sun altitude
Rises 20:56:20 0° 219° (SW) 3,223 6.4 -11.1°
Reaches altitude 10° 21:00:00 10° 247° (WSW) 2,304 6.1 -11.6°
Maximum altitude 21:02:18 13° 274° (W) 2,106 6.4 -12.0°
Drops below altitude 10° 21:04:35 10° 301° (WNW) 2,312 7.0 -12.3°
Sets 21:08:18 0° 329° (NNW) 3,245 7.3 -12.9°
